Sun, 19 Sep 2021 18:16:12 UTC

Information for RPM qemu-system-nios2-2:2.10.0-0.1.rc1.fc27.ppc64le.rpm

ID10616592
Nameqemu-system-nios2
Version2.10.0
Release0.1.rc1.fc27
Epoch2
Archppc64le
SummaryQEMU system emulator for nios2
DescriptionQEMU is a generic and open source processor emulator which achieves a good emulation speed by using dynamic translation. This package provides the system emulator for NIOS2.
Build Time2017-08-03 16:25:45 GMT
Size21,998
b04aa61deeb92ec8d74716ce38d2265b
LicenseGPLv2+ and LGPLv2+ and BSD
Buildrootf27-build-9404498-774360
Provides
qemu-system-nios2 = 2:2.10.0-0.1.rc1.fc27
qemu-system-nios2(ppc-64) = 2:2.10.0-0.1.rc1.fc27
Obsoletes No Obsoletes
Conflicts No Conflicts
Requires
qemu-block-curl = 2:2.10.0-0.1.rc1.fc27
qemu-block-dmg = 2:2.10.0-0.1.rc1.fc27
qemu-block-gluster = 2:2.10.0-0.1.rc1.fc27
qemu-block-iscsi = 2:2.10.0-0.1.rc1.fc27
qemu-block-nfs = 2:2.10.0-0.1.rc1.fc27
qemu-block-rbd = 2:2.10.0-0.1.rc1.fc27
qemu-block-ssh = 2:2.10.0-0.1.rc1.fc27
qemu-system-nios2-core = 2:2.10.0-0.1.rc1.fc27
rpmlib(CompressedFileNames) <= 3.0.4-1
rpmlib(FileDigests) <= 4.6.0-1
rpmlib(PayloadFilesHavePrefix) <= 4.0-1
rpmlib(PayloadIsXz) <= 5.2-1
Recommends No Recommends
Suggests No Suggests
Supplements No Supplements
Enhances No Enhances
Files No Files
Component of
Page:
1 through 50 of 328 >>>
Buildroot descending sort Created State
f27-build-9560245-776719 2017-08-17 00:34:56 expired
f27-build-9560116-776704 2017-08-17 00:03:51 expired
f27-build-9560014-776704 2017-08-16 23:34:39 expired
f27-build-9559937-776704 2017-08-16 23:06:04 expired
f27-build-9559867-776704 2017-08-16 22:35:22 expired
f27-build-9559786-776700 2017-08-16 22:04:17 expired
f27-build-9559740-776690 2017-08-16 21:33:44 expired
f27-build-9559492-776674 2017-08-16 21:04:35 expired
f27-build-9559193-776662 2017-08-16 20:20:49 expired
f27-build-9558926-776662 2017-08-16 19:49:02 expired
f27-build-9558753-776651 2017-08-16 19:20:10 expired
f27-build-9558673-776649 2017-08-16 18:50:07 expired
f27-build-9558565-776642 2017-08-16 18:18:52 expired
f27-build-9558504-776638 2017-08-16 17:49:16 expired
f27-build-9558395-776636 2017-08-16 17:18:53 expired
f27-build-9558305-776630 2017-08-16 16:51:46 expired
f27-build-9558191-776627 2017-08-16 16:19:17 expired
f27-build-9557930-776618 2017-08-16 15:51:59 expired
f27-build-9557710-776618 2017-08-16 15:19:44 expired
f27-build-9557482-776618 2017-08-16 14:49:20 expired
f27-build-9557208-776607 2017-08-16 14:06:51 expired
f27-build-9557007-776607 2017-08-16 13:34:26 expired
f27-build-9556781-776607 2017-08-16 13:05:15 expired
f27-build-9556659-776607 2017-08-16 12:37:12 expired
f27-build-9556459-776607 2017-08-16 12:05:48 expired
f27-build-9556213-776594 2017-08-16 11:35:16 expired
f27-build-9555690-776594 2017-08-16 10:50:14 expired
f27-build-9555347-776594 2017-08-16 10:19:55 expired
f27-build-9555003-776589 2017-08-16 09:48:51 expired
f27-build-9554490-776589 2017-08-16 09:04:10 expired
f27-build-9554097-776586 2017-08-16 08:34:21 expired
f27-build-9553772-776586 2017-08-16 08:05:21 expired
f27-build-9553400-776584 2017-08-16 07:33:51 expired
f27-build-9553117-776582 2017-08-16 07:03:40 expired
f27-build-9552776-776582 2017-08-16 06:33:56 expired
f27-build-9552495-776582 2017-08-16 05:50:31 expired
f27-build-9552207-776582 2017-08-16 05:19:02 expired
f27-build-9551867-776580 2017-08-16 04:48:41 expired
f27-build-9551567-776580 2017-08-16 04:20:11 expired
f27-build-9551352-776580 2017-08-16 03:48:53 expired
f27-build-9551150-776580 2017-08-16 03:19:13 expired
f27-build-9550918-776578 2017-08-16 02:49:08 expired
f27-build-9550683-776578 2017-08-16 02:21:31 expired
f27-build-9550502-776578 2017-08-16 01:49:23 expired
f27-build-9550349-776572 2017-08-16 01:21:26 expired
f27-build-9550184-776558 2017-08-16 00:48:56 expired
f27-build-9550052-776558 2017-08-16 00:19:09 expired
f27-build-9549900-776550 2017-08-15 23:36:47 expired
f27-build-9549794-776544 2017-08-15 23:04:24 expired
f27-build-9549672-776535 2017-08-15 22:34:20 expired